User: anonymous   Login
Location: Unspecified
(0.0000°N, 0.0000°E)
Time: 23:37:11
(UTC+00:00)
Language:

IRAS - Orbit

View from above orbital plane
View from above orbital plane
View from above satellite
View from above satellite

Ground track
Ground track

The orbit data is extracted from the following two-line orbital elements,

1 13777U 83004A   18294.56450830 -.00000286 +00000-0 -16387-3 0  9991
2 13777 098.9480 119.9524 0020585 132.7904 276.6096 14.00405196495040
Epoch (UTC): 21 October 2018 13:32:53
Eccentricity: 0.0020585
inclination: 98.9480°
perigee height: 877 km
apogee height: 907 km
right ascension of ascending node: 119.9524°
argument of perigee: 132.7904°
revolutions per day: 14.00405196
mean anomaly at epoch: 276.6096°
orbit number at epoch: 49504

The dashed part of the orbit path shows where the satellite is in the earth's shadow,  

DLR